Location: Spruce Knob
(38.6995°N, 79.5330°W)
Time: 09:56:51
(UTC-04:00)

XW-2F - Visible Passes

Search period start: 21 March 2023 00:00
Search period end: 31 March 2023 00:00
Orbit: 460 x 478 km, 97.5° (Epoch: 21 March)

Date Brightness Start Highest point End Pass type
(mag) Time Alt. Az. Time Alt. Az. Time Alt. Az.
23 Mar ? 20:04:41 10° SW 20:06:38 14° W 20:08:36 10° WNW visible
26 Mar ? 20:10:23 10° WSW 20:11:53 12° W 20:13:24 10° WNW visible
29 Mar ? 20:15:44 10° WSW 20:16:36 11° W 20:17:28 10° WNW visible
